Content
SEND FEEDBACK

Daily
Averages
Monthly
Summary
Mexico

PLAYA DEL CARMEN, QUINTANA ROO


Home > North America > Mexico > Quintana Roo
Elevation: 30 feet     Latitude: 20 38N     Longitude: 087 04W

WEATHER
 
SELECT A DAY
Number of Records: 196,490;   Date Range: 2/21/06 - 7/29/14
 
SHARE

PRINT THIS DATA

[ ← Previous Day ]
WEATHER ALMANAC - APRIL 1, 2014
[ Next Day → ]
[ °C ]   °F
Weather ElementAverageHighLow
Temperature66.7 °F84.2 °F (4:15 pm)48.2 °F (6:35 am)
Dewpoint25.6 °F55.4 °F (9:15 am) (7:00 pm)
Humidity34.7 %100 % (2:35 am)8 % (6:55 pm)
Barometer30.17 in30.22 in (10:15 am)30.13 in (4:55 pm)
Wind Speed2.1 mph6.9 mph (10:55 am)
Weather ElementAverage
Visibility9.5 mi
Wind DirectionENE (62.5 °)

Weather ElementTotal
Precipitation0.03 in
Cooling Degree Days1.2 (Base 65)
Growing Degree Days16.2 (Base 50)
Averaged from 71 records on April 1, 2014
WEATHER CONDITIONS BREAKOUT
WIND DIRECTION BREAKOUT
WEATHER BY HOUR - APRIL 1, 2014
[ °C ]   °F
Local TimeTemperatureDewpointHumidityBarometerVisibilityWind DirectionWind SpeedGust SpeedPrecipitationEventsConditions
12:35 AM53.6 °F0.0 °F30.18 in10.0 miNorth (360°)3.5 mphClear
12:55 AM53.6 °F0.0 °F30.17 in10.0 miNorth (10°)3.5 mphClear
1:15 AM53.6 °F0.0 °F30.17 in10.0 miCalmClear
1:35 AM53.6 °F0.0 °F30.17 in10.0 miCalmClear
1:55 AM53.6 °F0.0 °F30.18 in10.0 miEast (90°)3.5 mphClear
2:15 AM55.4 °F0.0 °F30.17 in10.0 miCalmClear
2:35 AM51.8 °F51.8 °F100 %30.17 in10.0 miCalmClear
2:55 AM53.6 °F51.8 °F94 %30.17 in10.0 miCalmClear
3:15 AM53.6 °F0.0 °F30.16 in10.0 miCalmClear
3:35 AM51.8 °F0.0 °F30.16 in10.0 miCalmClear
3:55 AM50.0 °F0.0 °F30.15 in7.0 miCalmClear
4:15 AM50.0 °F0.0 °F30.15 in10.0 miCalmClear
4:35 AM50.0 °F0.0 °F30.15 in10.0 miCalmClear
4:55 AM50.0 °F0.0 °F30.14 in7.0 miCalmClear
5:15 AM50.0 °F0.0 °F30.15 in10.0 miCalmClear
5:35 AM50.0 °F0.0 °F30.15 in7.0 miCalmClear
5:55 AM50.0 °F0.0 °F30.15 in5.0 miCalmHaze
6:15 AM50.0 °F0.0 °F30.15 in7.0 miCalmClear
6:35 AM48.2 °F0.0 °F30.16 in5.0 miEast (80°)3.5 mphHaze
6:55 AM48.2 °F0.0 °F30.16 in7.0 miCalmClear
7:15 AM50.0 °F0.0 °F30.17 in7.0 miENE (70°)3.5 mphClear
7:35 AM50.0 °F0.0 °F30.17 in7.0 miENE (60°)3.5 mphClear
7:55 AM50.0 °F0.0 °F30.18 in7.0 miCalmClear
8:15 AM53.6 °F0.0 °F30.19 in7.0 miENE (70°)3.5 mphClear
8:35 AM59.0 °F0.0 °F30.20 in10.0 miCalmClear
8:55 AM62.6 °F0.0 °F30.20 in10.0 miCalmClear
9:15 AM64.4 °F55.4 °F73 %30.20 in10.0 miEast (90°)3.5 mphClear
9:35 AM68.0 °F51.8 °F56 %30.21 in10.0 miEast (100°)4.6 mphClear
9:55 AM69.8 °F51.8 °F53 %30.21 in10.0 miEast (80°)3.5 mphClear
10:15 AM71.6 °F51.8 °F50 %30.22 in10.0 miCalmClear
10:35 AM73.4 °F48.2 °F41 %30.22 in10.0 miCalmClear
10:55 AM75.2 °F46.4 °F36 %30.22 in10.0 miEast (100°)6.9 mphClear
11:15 AM75.2 °F46.4 °F36 %30.22 in10.0 miEast (100°)6.9 mphClear
11:35 AM75.2 °F42.8 °F31 %30.22 in10.0 miCalmClear
11:55 AM77.0 °F41.0 °F28 %30.22 in10.0 miCalmClear
12:15 PM77.0 °F39.2 °F26 %30.22 in10.0 miCalmClear
12:35 PM78.8 °F37.4 °F23 %30.22 in10.0 miCalmClear
12:55 PM78.8 °F35.6 °F21 %30.21 in10.0 miSouth (180°)3.5 mphClear
1:15 PM78.8 °F35.6 °F21 %30.21 in10.0 miENE (60°)3.5 mphClear
1:35 PM80.6 °F35.6 °F20 %30.20 in10.0 miENE (60°)5.8 mphClear
1:55 PM78.8 °F30.2 °F17 %30.19 in10.0 miNorth (350°)4.6 mphClear
2:15 PM80.6 °F30.2 °F16 %30.18 in10.0 miCalmClear
2:35 PM80.6 °F26.6 °F14 %30.18 in10.0 miEast (100°)5.8 mphClear
2:55 PM82.4 °F26.6 °F13 %30.17 in10.0 miSouth (190°)4.6 mphClear
3:15 PM82.4 °F28.4 °F14 %30.17 in10.0 miSSE (160°)4.6 mph0.01 inClear
3:35 PM82.4 °F32.0 °F16 %30.16 in10.0 miESE (110°)4.6 mph0.01 inClear
3:55 PM82.4 °F30.2 °F15 %30.15 in10.0 miNE (50°)3.5 mph0.01 inClear
4:15 PM84.2 °F32.0 °F15 %30.14 in10.0 miSE (130°)3.5 mphClear
4:35 PM84.2 °F30.2 °F14 %30.14 in10.0 miESE (120°)4.6 mphClear
4:55 PM84.2 °F28.4 °F13 %30.13 in10.0 miSSE (160°)3.5 mphClear
5:15 PM82.4 °F26.6 °F13 %30.13 in10.0 miCalmClear
5:35 PM82.4 °F26.6 °F13 %30.13 in10.0 miEast (90°)4.6 mphClear
5:55 PM82.4 °F24.8 °F12 %30.13 in10.0 miESE (110°)5.8 mphClear
6:15 PM82.4 °F19.4 °F10 %30.14 in10.0 miEast (90°)3.5 mphClear
6:35 PM82.4 °F17.6 °F9 %30.14 in10.0 miESE (110°)4.6 mphClear
6:55 PM82.4 °F14.0 °F8 %30.14 in10.0 miCalmClear
7:15 PM78.8 °F33.8 °F20 %30.14 in10.0 miCalmClear
7:35 PM77.0 °F33.8 °F21 %30.14 in10.0 miCalmClear
7:55 PM73.4 °F35.6 °F25 %30.14 in10.0 miCalmClear
8:15 PM71.6 °F37.4 °F29 %30.15 in10.0 miCalmClear
8:35 PM68.0 °F41.0 °F37 %30.15 in10.0 miCalmClear
8:55 PM66.2 °F44.6 °F46 %30.16 in10.0 miCalmClear
9:15 PM64.4 °F46.4 °F52 %30.16 in10.0 miNW (310°)4.6 mphClear
9:35 PM68.0 °F46.4 °F46 %30.17 in10.0 miNW (310°)3.5 mphClear
9:55 PM64.4 °F48.2 °F56 %30.18 in10.0 miNNW (330°)3.5 mphClear
10:15 PM66.2 °F50.0 °F56 %30.19 in10.0 miCalmClear
10:35 PM64.4 °F50.0 °F59 %30.20 in10.0 miNE (50°)4.6 mphClear
10:55 PM64.4 °F51.8 °F64 %30.20 in10.0 miNNE (30°)3.5 mphClear
11:15 PM64.4 °F51.8 °F64 %30.20 in10.0 miNE (40°)3.5 mphClear
11:35 PM64.4 °F51.8 °F64 %30.20 in10.0 miNE (40°)4.6 mphClear
11:55 PM60.8 °F51.8 °F72 %30.20 in10.0 miNE (50°)3.5 mphClear
Hourly data recorded from KPCM, located miles away from Playa del Carmen, Quintana Roo







STORIES FROM OUR PARTNERS